Location: Unspecified
(0.0000°N, 0.0000°E)
Time: 17:49:16
(UTC+00:00)

STARLINK 1046 - Pass Details

Date: 16 January 2020
Orbit: 548 x 551 km, 53.0° (Epoch: 17 January)

Event Time Altitude Azimuth Distance (km) Brightness Sun altitude
Rises 20:06:08 0° 286° (WNW) 2,705 7.9 -27.0°
Reaches altitude 10° 20:10:58 10° 235° (SW) 1,818 7.2 -28.1°
Maximum altitude 20:11:01 10° 235° (SW) 1,818 7.2 -28.1°
Drops below altitude 10° 20:11:05 10° 234° (SW) 1,818 7.2 -28.2°
Sets 20:15:57 0° 183° (S) 2,716 7.5 -29.3°
